Time,TemperatureF,DewpointF,PressureIn,WindDirection,WindDirectionDegrees,WindSpeedMPH,WindSpeedGustMPH,Humidity,HourlyPrecipIn,Conditions,Clouds,dailyrainin,SolarRadiationWatts/m^2,SoftwareType,DateUTC
2013-07-14 00:02:00,69.0,65.0,-100.00,NNE,28,0.0,2.0,88,0.00,,,0.00,0.000000,,2013-07-14 04:02:00,
2013-07-14 00:32:00,67.0,64.0,-100.00,NNE,14,0.0,2.0,90,0.00,,,0.00,0.000000,,2013-07-14 04:32:00,
2013-07-14 00:42:00,67.0,64.0,-100.00,NNE,14,0.0,2.0,90,0.00,,,0.00,0.000000,,2013-07-14 04:42:00,
2013-07-14 00:54:00,67.0,64.0,-100.00,NNE,14,0.0,2.0,90,0.00,,,0.00,0.000000,,2013-07-14 04:54:00,
2013-07-14 01:02:00,67.0,64.0,-100.00,NNE,14,0.0,2.0,90,0.00,,,0.00,0.000000,,2013-07-14 05:02:00,
2013-07-14 01:32:00,67.0,66.0,-100.00,NNE,19,1.0,3.0,95,0.00,,,0.00,0.000000,,2013-07-14 05:32:00,
2013-07-14 01:43:00,67.0,66.0,-100.00,NNE,19,1.0,3.0,95,0.00,,,0.00,0.000000,,2013-07-14 05:43:00,
2013-07-14 01:53:00,67.0,66.0,-100.00,NNE,19,1.0,3.0,95,0.00,,,0.00,0.000000,,2013-07-14 05:53:00,
2013-07-14 02:01:00,67.0,66.0,-100.00,NNE,19,1.0,3.0,95,0.00,,,0.00,0.000000,,2013-07-14 06:01:00,
2013-07-14 02:32:00,67.0,65.0,-100.00,NNE,14,0.0,2.0,94,0.00,,,0.00,0.000000,,2013-07-14 06:32:00,
2013-07-14 02:42:00,67.0,65.0,-100.00,NNE,14,0.0,2.0,94,0.00,,,0.00,0.000000,,2013-07-14 06:42:00,
2013-07-14 02:53:00,67.0,65.0,-100.00,NNE,14,0.0,2.0,94,0.00,,,0.00,0.000000,,2013-07-14 06:53:00,
2013-07-14 03:02:00,67.0,65.0,-100.00,NNE,14,0.0,2.0,94,0.00,,,0.00,0.000000,,2013-07-14 07:02:00,
2013-07-14 03:33:00,67.0,65.0,-100.00,NNE,24,0.0,3.0,93,0.00,,,0.00,0.000000,,2013-07-14 07:33:00,
2013-07-14 03:43:00,67.0,65.0,-100.00,NNE,24,0.0,3.0,93,0.00,,,0.00,0.000000,,2013-07-14 07:43:00,
2013-07-14 03:53:00,67.0,65.0,-100.00,NNE,24,0.0,3.0,93,0.00,,,0.00,0.000000,,2013-07-14 07:53:00,
2013-07-14 04:01:00,67.0,65.0,-100.00,NNE,24,0.0,3.0,93,0.00,,,0.00,0.000000,,2013-07-14 08:01:00,
2013-07-14 04:32:00,66.0,65.0,-100.00,NNE,18,1.0,3.0,95,0.00,,,0.00,0.000000,,2013-07-14 08:32:00,
2013-07-14 04:42:00,66.0,65.0,-100.00,NNE,18,1.0,3.0,95,0.00,,,0.00,0.000000,,2013-07-14 08:42:00,
2013-07-14 04:53:00,66.0,65.0,-100.00,NNE,18,1.0,3.0,95,0.00,,,0.00,0.000000,,2013-07-14 08:53:00,
2013-07-14 05:01:00,66.0,65.0,-100.00,NNE,18,1.0,3.0,95,0.00,,,0.00,0.000000,,2013-07-14 09:01:00,
2013-07-14 05:32:00,65.0,64.0,-100.00,NNE,29,1.0,4.0,96,0.00,,,0.00,0.000000,,2013-07-14 09:32:00,
2013-07-14 05:42:00,65.0,64.0,-100.00,NNE,29,1.0,4.0,96,0.00,,,0.00,0.000000,,2013-07-14 09:42:00,
2013-07-14 05:53:00,65.0,64.0,-100.00,NNE,29,1.0,4.0,96,0.00,,,0.00,0.000000,,2013-07-14 09:53:00,
2013-07-14 06:01:00,65.0,64.0,-100.00,NNE,29,1.0,4.0,96,0.00,,,0.00,0.000000,,2013-07-14 10:01:00,
2013-07-14 06:32:00,65.0,64.0,-100.00,NNE,17,1.0,4.0,97,0.00,,,0.00,0.000000,,2013-07-14 10:32:00,
2013-07-14 06:42:00,65.0,64.0,-100.00,NNE,17,1.0,4.0,97,0.00,,,0.00,0.000000,,2013-07-14 10:42:00,
2013-07-14 06:53:00,65.0,64.0,-100.00,NNE,17,1.0,4.0,97,0.00,,,0.00,0.000000,,2013-07-14 10:53:00,
2013-07-14 07:02:00,65.0,64.0,-100.00,NNE,17,1.0,4.0,97,0.00,,,0.00,0.000000,,2013-07-14 11:02:00,
2013-07-14 07:32:00,65.0,64.0,-100.00,NNE,18,1.0,4.0,96,0.00,,,0.00,5.000000,,2013-07-14 11:32:00,
2013-07-14 07:43:00,65.0,64.0,-100.00,NNE,18,1.0,4.0,96,0.00,,,0.00,5.000000,,2013-07-14 11:43:00,
2013-07-14 07:53:00,65.0,64.0,-100.00,NNE,18,1.0,4.0,96,0.00,,,0.00,5.000000,,2013-07-14 11:53:00,
2013-07-14 08:02:00,65.0,64.0,-100.00,NNE,18,1.0,4.0,96,0.00,,,0.00,5.000000,,2013-07-14 12:02:00,
2013-07-14 08:33:00,67.0,66.0,-100.00,East,82,1.0,2.0,96,0.00,,,0.00,58.000000,,2013-07-14 12:33:00,
2013-07-14 08:43:00,67.0,66.0,-100.00,East,82,1.0,2.0,96,0.00,,,0.00,58.000000,,2013-07-14 12:43:00,
2013-07-14 08:53:00,67.0,66.0,-100.00,East,82,1.0,2.0,96,0.00,,,0.00,58.000000,,2013-07-14 12:53:00,
2013-07-14 09:01:00,67.0,66.0,-100.00,East,82,1.0,2.0,96,0.00,,,0.00,58.000000,,2013-07-14 13:01:00,
2013-07-14 09:32:00,69.0,68.0,-100.00,NE,48,2.0,4.0,95,0.01,,,0.01,86.000000,,2013-07-14 13:32:00,
2013-07-14 09:42:00,69.0,68.0,-100.00,NE,48,2.0,4.0,95,0.01,,,0.01,86.000000,,2013-07-14 13:42:00,
2013-07-14 09:53:00,69.0,68.0,-100.00,NE,48,2.0,4.0,95,0.01,,,0.01,86.000000,,2013-07-14 13:53:00,
2013-07-14 10:02:00,69.0,68.0,-100.00,NE,48,2.0,4.0,95,0.01,,,0.01,86.000000,,2013-07-14 14:02:00,
2013-07-14 10:33:00,71.0,68.0,-100.00,NNE,29,2.0,6.0,91,0.01,,,0.02,211.000000,,2013-07-14 14:33:00,
2013-07-14 10:43:00,71.0,68.0,-100.00,NNE,29,2.0,6.0,91,0.01,,,0.02,211.000000,,2013-07-14 14:43:00,
2013-07-14 10:53:00,71.0,68.0,-100.00,NNE,29,2.0,6.0,91,0.01,,,0.02,211.000000,,2013-07-14 14:53:00,
2013-07-14 11:01:00,71.0,68.0,-100.00,NNE,29,2.0,6.0,91,0.01,,,0.02,211.000000,,2013-07-14 15:01:00,
2013-07-14 11:32:00,76.0,70.0,-100.00,NE,39,4.0,5.0,83,0.00,,,0.02,545.000000,,2013-07-14 15:32:00,
2013-07-14 11:42:00,76.0,70.0,-100.00,NE,39,4.0,5.0,83,0.00,,,0.02,545.000000,,2013-07-14 15:42:00,
2013-07-14 11:53:00,76.0,70.0,-100.00,NE,39,4.0,5.0,83,0.00,,,0.02,545.000000,,2013-07-14 15:53:00,
2013-07-14 12:01:00,76.0,70.0,-100.00,NE,39,4.0,5.0,83,0.00,,,0.02,545.000000,,2013-07-14 16:01:00,
2013-07-14 12:32:00,80.0,70.0,-100.00,North,2,3.0,7.0,71,0.00,,,0.02,615.000000,,2013-07-14 16:32:00,
2013-07-14 12:43:00,80.0,70.0,-100.00,North,2,3.0,7.0,71,0.00,,,0.02,615.000000,,2013-07-14 16:43:00,
2013-07-14 12:53:00,80.0,70.0,-100.00,North,2,3.0,7.0,71,0.00,,,0.02,615.000000,,2013-07-14 16:53:00,
2013-07-14 13:02:00,80.0,70.0,-100.00,North,2,3.0,7.0,71,0.00,,,0.02,615.000000,,2013-07-14 17:02:00,
2013-07-14 13:32:00,80.0,70.0,-100.00,North,5,3.0,7.0,71,0.00,,,0.02,501.000000,,2013-07-14 17:32:00,
2013-07-14 13:43:00,80.0,70.0,-100.00,North,5,3.0,7.0,71,0.00,,,0.02,501.000000,,2013-07-14 17:43:00,
2013-07-14 13:53:00,80.0,70.0,-100.00,North,5,3.0,7.0,71,0.00,,,0.02,501.000000,,2013-07-14 17:53:00,
2013-07-14 14:01:00,80.0,70.0,-100.00,North,5,3.0,7.0,71,0.00,,,0.02,501.000000,,2013-07-14 18:01:00,
2013-07-14 14:32:00,80.0,69.0,-100.00,North,9,3.0,7.0,69,0.00,,,0.02,578.000000,,2013-07-14 18:32:00,
2013-07-14 14:42:00,80.0,69.0,-100.00,North,9,3.0,7.0,69,0.00,,,0.02,578.000000,,2013-07-14 18:42:00,
2013-07-14 14:52:00,80.0,69.0,-100.00,North,9,3.0,7.0,69,0.00,,,0.02,578.000000,,2013-07-14 18:52:00,
2013-07-14 15:02:00,80.0,69.0,-100.00,North,9,3.0,7.0,69,0.00,,,0.02,578.000000,,2013-07-14 19:02:00,
2013-07-14 15:32:00,83.0,70.0,-100.00,East,89,3.0,7.0,65,0.00,,,0.02,614.000000,,2013-07-14 19:32:00,
2013-07-14 15:43:00,83.0,70.0,-100.00,East,89,3.0,7.0,65,0.00,,,0.02,614.000000,,2013-07-14 19:43:00,
2013-07-14 15:53:00,83.0,70.0,-100.00,East,89,3.0,7.0,65,0.00,,,0.02,614.000000,,2013-07-14 19:53:00,
2013-07-14 16:02:00,83.0,70.0,-100.00,East,89,3.0,7.0,65,0.00,,,0.02,614.000000,,2013-07-14 20:02:00,
2013-07-14 16:32:00,76.0,65.0,-100.00,North,11,2.0,9.0,70,0.00,,,0.02,254.000000,,2013-07-14 20:32:00,
2013-07-14 16:43:00,76.0,65.0,-100.00,North,11,2.0,9.0,70,0.00,,,0.02,254.000000,,2013-07-14 20:43:00,
2013-07-14 16:53:00,76.0,65.0,-100.00,North,11,2.0,9.0,70,0.00,,,0.02,254.000000,,2013-07-14 20:53:00,
2013-07-14 17:02:00,76.0,65.0,-100.00,North,11,2.0,9.0,70,0.00,,,0.02,254.000000,,2013-07-14 21:02:00,
2013-07-14 17:32:00,76.0,69.0,-100.00,NNE,22,3.0,4.0,79,0.00,,,0.02,185.000000,,2013-07-14 21:32:00,
2013-07-14 17:43:00,76.0,69.0,-100.00,NNE,22,3.0,4.0,79,0.00,,,0.02,185.000000,,2013-07-14 21:43:00,
2013-07-14 17:53:00,76.0,69.0,-100.00,NNE,22,3.0,4.0,79,0.00,,,0.02,185.000000,,2013-07-14 21:53:00,
2013-07-14 18:01:00,76.0,69.0,-100.00,NNE,22,3.0,4.0,79,0.00,,,0.02,185.000000,,2013-07-14 22:01:00,
2013-07-14 18:42:00,77.0,61.0,-100.00,North,1,5.0,12.0,58,0.00,,,0.02,541.000000,,2013-07-14 22:42:00,
2013-07-14 18:53:00,77.0,61.0,-100.00,North,1,5.0,12.0,58,0.00,,,0.02,541.000000,,2013-07-14 22:53:00,
2013-07-14 19:01:00,77.0,61.0,-100.00,North,1,5.0,12.0,58,0.00,,,0.02,541.000000,,2013-07-14 23:01:00,
2013-07-14 19:32:00,77.0,64.0,-100.00,North,1,4.0,12.0,64,0.00,,,0.02,353.000000,,2013-07-14 23:32:00,
2013-07-14 19:42:00,77.0,64.0,-100.00,North,1,4.0,12.0,64,0.00,,,0.02,353.000000,,2013-07-14 23:42:00,
2013-07-14 19:53:00,77.0,64.0,-100.00,North,1,4.0,12.0,64,0.00,,,0.02,353.000000,,2013-07-14 23:53:00,
2013-07-14 20:02:00,77.0,64.0,-100.00,North,1,4.0,12.0,64,0.00,,,0.02,353.000000,,2013-07-15 00:02:00,
2013-07-14 20:32:00,74.0,64.0,-100.00,North,1,3.0,10.0,70,0.00,,,0.02,33.000000,,2013-07-15 00:32:00,
2013-07-14 20:43:00,74.0,64.0,-100.00,North,1,3.0,10.0,70,0.00,,,0.02,33.000000,,2013-07-15 00:43:00,
2013-07-14 20:53:00,74.0,64.0,-100.00,North,1,3.0,10.0,70,0.00,,,0.02,33.000000,,2013-07-15 00:53:00,
2013-07-14 21:01:00,74.0,64.0,-100.00,North,1,3.0,10.0,70,0.00,,,0.02,33.000000,,2013-07-15 01:01:00,
2013-07-14 21:32:00,72.0,65.0,-100.00,North,2,2.0,8.0,80,0.00,,,0.02,6.000000,,2013-07-15 01:32:00,
2013-07-14 21:43:00,72.0,65.0,-100.00,North,2,2.0,8.0,80,0.00,,,0.02,6.000000,,2013-07-15 01:43:00,
2013-07-14 21:53:00,72.0,65.0,-100.00,North,2,2.0,8.0,80,0.00,,,0.02,6.000000,,2013-07-15 01:53:00,
2013-07-14 22:02:00,72.0,65.0,-100.00,North,2,2.0,8.0,80,0.00,,,0.02,6.000000,,2013-07-15 02:02:00,
2013-07-14 22:32:00,69.0,65.0,-100.00,North,1,2.0,4.0,87,0.00,,,0.02,0.000000,,2013-07-15 02:32:00,
2013-07-14 22:42:00,69.0,65.0,-100.00,North,1,2.0,4.0,87,0.00,,,0.02,0.000000,,2013-07-15 02:42:00,
2013-07-14 22:53:00,69.0,65.0,-100.00,North,1,2.0,4.0,87,0.00,,,0.02,0.000000,,2013-07-15 02:53:00,
2013-07-14 23:02:00,69.0,65.0,-100.00,North,1,2.0,4.0,87,0.00,,,0.02,0.000000,,2013-07-15 03:02:00,
2013-07-14 23:32:00,69.0,64.0,-100.00,North,1,2.0,4.0,85,0.00,,,0.02,0.000000,,2013-07-15 03:32:00,
2013-07-14 23:43:00,69.0,64.0,-100.00,North,1,2.0,4.0,85,0.00,,,0.02,0.000000,,2013-07-15 03:43:00,
2013-07-14 23:53:00,69.0,64.0,-100.00,North,1,2.0,4.0,85,0.00,,,0.02,0.000000,,2013-07-15 03:53:00,